Location: Newark
(48.1500°N, 2.9667°W)
Time: 21:05:08
(UTC+00:00)

A-11 Canister half - Pass Details

Date: 30 January 2020
Orbit: 1517 x 1683 km, 47.2° (Epoch: 22 February)

Event Time Altitude Azimuth Distance (km) Brightness Sun altitude
Exits shadow 05:13:31 34° 234° (SW) 2,291 9.5 -25.0°
Maximum altitude 05:14:36 35° 221° (SW) 2,257 9.5 -24.8°
Drops below altitude 10° 05:22:43 10° 160° (SSE) 3,700 11.2 -23.5°
Sets 05:26:06 0° 152° (SSE) 4,697 12.0 -22.9°
